Overview Statistics Trail Chart Weather Telemetry Raw packets
 

This is the latest recevied weather packets stored in our database for station/object HK4LRM-13. If no packets are shown the sender has not sent any weather packets the latest 10 day(s).

<< 1 2 3 4 5 6 7 >>
Time Temp. Humidity Pressure Rain* Wind** Luminosity Snow
1788534750 24.44° C 59% 1014 hPa 0 mm - - -
1788534210 24.44° C 56% 1014 hPa 0 mm - - -
1788533669 24.44° C 56% 1014 hPa 0 mm - - -
1788533129 22.78° C 61% 1014 hPa 0 mm - - -
1788532588 22.78° C 61% 1014 hPa 0 mm - - -
1788532048 22.22° C 62% 1015 hPa 0 mm - - -
1788531507 22.22° C 63% 1015 hPa 0 mm - - -
1788530967 22.22° C 65% 1015 hPa 0 mm - - -
1788530426 22.22° C 65% 1015 hPa 0 mm - - -
1788529886 22.22° C 64% 1015 hPa 0 mm - - -
1788529345 21.11° C 73% 1015 hPa 0 mm - - -
1788528805 18.33° C 82% 1015 hPa 0 mm - - -
1788528264 18.89° C 82% 1016 hPa 0 mm - - -
1788527752 18.89° C 82% 1016 hPa 0 mm - - -
1788527183 19.44° C 82% 1016 hPa 0 mm - - -
1788526643 20° C 80% 1016 hPa 0 mm - - -
1788526102 20° C 79% 1017 hPa 0 mm - - -
1788525562 16.11° C 99% 1017 hPa 0 mm - - -
1788525021 16.11° C 99% 1017 hPa 0 mm - - -
1788524481 16.11° C 99% 1017 hPa 0 mm - - -
1788523940 16.11° C 10% - 0 mm - - -
1788523400 16.11° C 10% - 0 mm - - -
1788522859 16.67° C 10% - 0 mm - - -
1788522319 16.67° C 10% - 0 mm - - -
1788521778 17.22° C 10% - 0 mm - - -

* Rain latest hour (hover to see other rain measurements)
** Current wind speed in m/s (hover to see current wind gust speed)